This is the latest recevied weather packets stored in our database for station/object KE4ODN. If no packets are shown the sender has not sent any weather packets the latest 10 day(s).
| Time | Temp. | Humidity | Pressure | Rain* | Wind** | Luminosity | Snow |
|---|---|---|---|---|---|---|---|
| 1777702804 | 13.89° C | 95% | 1013.6 hPa | 0 mm | - | 0 W/m² | - |
| 1777702324 | 13.89° C | 95% | 1013.5 hPa | 0 mm | - | 0 W/m² | - |
| 1777701364 | 13.89° C | 95% | 1013.5 hPa | 0 mm | - | 0 W/m² | - |
| 1777700404 | 13.89° C | 95% | 1013.3 hPa | 0 mm | - | 0 W/m² | - |
| 1777700164 | 13.89° C | 95% | 1013.2 hPa | 0 mm | - | 0 W/m² | - |
| 1777699444 | 13.89° C | 95% | 1013.5 hPa | 0 mm | - | 0 W/m² | - |
| 1777696105 | 13.89° C | 95% | 1013.4 hPa | 0.25 mm | - | 0 W/m² | - |
| 1777695844 | 13.89° C | 95% | 1013.3 hPa | 0.25 mm | - | 0 W/m² | - |
| 1777695145 | 13.89° C | 95% | 1013.2 hPa | 0.25 mm | - | 0 W/m² | - |
| 1777694644 | 13.89° C | 95% | 1013.2 hPa | 0.25 mm | - | 0 W/m² | - |
| 1777694164 | 13.89° C | 95% | 1013.2 hPa | 0.25 mm | - | 0 W/m² | - |
| 1777693945 | 13.89° C | 94% | 1013.1 hPa | 0.25 mm | - | 0 W/m² | - |
| 1777693444 | 13.89° C | 94% | 1013 hPa | 0.25 mm | - | 0 W/m² | - |
| 1777690324 | 14.44° C | 94% | 1013.6 hPa | 0 mm | - | 0 W/m² | - |
| 1777688644 | 14.44° C | 94% | 1013.7 hPa | 0.51 mm | - | 0 W/m² | - |
| 1777687945 | 14.44° C | 94% | 1014.3 hPa | 1.02 mm | - | 0 W/m² | - |
| 1777687705 | 14.44° C | 94% | 1014.3 hPa | 1.02 mm | - | 0 W/m² | - |
| 1777686244 | 15° C | 94% | 1014 hPa | 0.76 mm | - | 0 W/m² | - |
| 1777684804 | 15° C | 93% | 1014 hPa | 0.25 mm | - | 0 W/m² | - |
| 1777683625 | 15° C | 93% | 1013.5 hPa | 0 mm | - | 0 W/m² | - |
| 1777682884 | 15° C | 92% | 1013.1 hPa | 0 mm | - | 0 W/m² | - |
| 1777682644 | 15° C | 92% | 1012.9 hPa | 0 mm | - | 0 W/m² | - |
| 1777682404 | 15° C | 92% | 1012.9 hPa | 0 mm | - | 0 W/m² | - |
| 1777680964 | 15.56° C | 91% | 1013 hPa | 0 mm | - | 0 W/m² | - |
| 1777680244 | 15.56° C | 90% | 1012.9 hPa | 0 mm | - | 0 W/m² | - |
* Rain latest hour (hover to see other rain measurements)
** Current wind speed in m/s (hover to see current wind gust speed)